Gainesville, GA

1:27 AM EST on December 07, 2019 (GMT -0500)
Gilmer Memorial

Weather History for KGVL - November, 2019

Change the Weather History Date:

Saturday, November 16, 2019

  Actual Average Record
Temperature  
Mean Temperature 52 °F 53 °F  
Max Temperature 63 °F 62 °F 80 °F (1941)
Min Temperature 40 °F 43 °F 14 °F (1969)
Degree Days  
Heating Degree Days 13 13  
Month to date heating degree days 271 166  
Since 1 July heating degree days 351 324  
Growing Degree Days 2 (Base 50)    
Moisture  
Dew Point 39 °F    
Average Humidity 67    
Maximum Humidity 100    
Minimum Humidity 34    
Precipitation  
Precipitation 0.00 in 0.14 in 1.50 in (1989)
Month to date precipitation 1.44 1.95  
Year to date precipitation 43.54 46.96  
Snow  
Snow 0.00 in - - ()
Month to date snowfall 0.0  
Since 1 July snowfall 0.0  
Since 1 September snowfall 0.0  
Snow Depth 0.00 in    
Sea Level Pressure  
Sea Level Pressure 30.06 in    
Wind  
Wind Speed 3 mph (ENE)    
Max Wind Speed 13 mph    
Max Gust Speed 16 mph    
Visibility 10 miles    
Events      
T = Trace of Precipitation, MM = Missing Value Source: NWS Daily Summary

Daily Weather History Graph

Daily Weather History Graph

Search for Another Location

Airport or City:

Astronomy

Nov. 16, 2019 Rise Set
Actual Time 7:09 AM EST 5:30 PM EST
Civil Twilight 6:42 AM EST 5:57 PM EST
Nautical Twilight 6:12 AM EST 6:27 PM EST
Astronomical Twilight 5:42 AM EST 6:57 PM EST
Moon 9:07 PM EST (11/16) 10:57 AM EST (11/16)
Length of Visible Light 11h 15m
Length of Day
10h 21m
Waning Gibbous, 82% of the Moon is Illuminated
Nov 16
Waning Gibbous
Nov 19
Last Quarter
Nov 26
New
Dec 4
First Quarter
Dec 12
Full

Hourly Weather History & Observations

Time (EST) Temp. Windchill Dew Point Humidity Pressure Visibility Wind Dir Wind Speed Gust Speed Precip Events Conditions
12:53 AM 45.0 °F 43.5 °F 44.1 °F 97% 30.05 in 9.0 mi NNW 3.5 mph - N/A   Scattered Clouds
1:53 AM 45.0 °F - 45.0 °F 100% 30.04 in 10.0 mi Calm Calm - N/A   Mostly Cloudy
2:53 AM 44.1 °F 42.5 °F 44.1 °F 100% 30.05 in 10.0 mi West 3.5 mph - N/A   Mostly Cloudy
3:53 AM 43.0 °F - 42.1 °F 97% 30.04 in 10.0 mi Calm Calm - N/A   Overcast
5:53 AM 41.0 °F 39.0 °F 39.0 °F 93% 30.07 in 10.0 mi WNW 3.5 mph - N/A   Clear
6:53 AM 41.0 °F 39.0 °F 39.9 °F 96% 30.08 in 10.0 mi NNW 3.5 mph - N/A   Clear
7:53 AM 42.1 °F - 39.9 °F 92% 30.09 in 10.0 mi Calm Calm - N/A   Clear
8:53 AM 44.1 °F - 41.0 °F 89% 30.10 in 10.0 mi Calm Calm - N/A   Overcast
9:53 AM 50.0 °F - 41.0 °F 71% 30.10 in 10.0 mi Calm Calm - N/A   Overcast
10:53 AM 55.9 °F - 37.9 °F 51% 30.09 in 10.0 mi ENE 8.1 mph - N/A   Overcast
11:53 AM 59.0 °F - 35.1 °F 41% 30.07 in 10.0 mi East 10.4 mph - N/A   Clear
12:51 PM 60.8 °F - 37.4 °F 42% 30.05 in 10.0 mi NE 10.4 mph - N/A   Overcast
12:53 PM 61.0 °F - 39.0 °F 44% 30.04 in 10.0 mi ENE 8.1 mph - N/A   Mostly Cloudy
1:53 PM 62.1 °F - 34.0 °F 35% 30.02 in 10.0 mi Variable 4.6 mph - N/A   Scattered Clouds
2:53 PM 62.1 °F - 37.0 °F 39% 30.01 in 10.0 mi East 5.8 mph - N/A   Mostly Cloudy
3:53 PM 61.0 °F - 39.9 °F 46% 30.02 in 10.0 mi ESE 4.6 mph - N/A   Overcast
4:53 PM 59.0 °F - 39.0 °F 48% 30.03 in 10.0 mi SE 3.5 mph - N/A   Mostly Cloudy
5:53 PM 53.1 °F - 41.0 °F 64% 30.04 in 10.0 mi Calm Calm - N/A   Clear
6:53 PM 53.1 °F - 37.9 °F 57% 30.06 in 10.0 mi SE 3.5 mph - N/A   Clear
7:53 PM 48.9 °F - 39.0 °F 69% 30.08 in 10.0 mi Calm Calm - N/A   Clear
8:53 PM 48.9 °F - 43.0 °F 80% 30.08 in 10.0 mi Calm Calm - N/A   Partly Cloudy
9:53 PM 50.0 °F - 39.9 °F 68% 30.09 in 10.0 mi Calm Calm - N/A   Scattered Clouds
10:53 PM 48.0 °F - 36.0 °F 63% 30.08 in 10.0 mi East 5.8 mph - N/A   Partly Cloudy
11:53 PM 46.0 °F 42.5 °F 34.0 °F 63% 30.07 in 10.0 mi East 6.9 mph - N/A   Clear